Location: Sortland
(68.7020°N, 15.4240°E)
Time: 03:05:19
(UTC+02:00)

N. Korean satellite - Visible Passes

Search period start: 20 October 2019 00:00
Search period end: 29 October 2019 23:00
Orbit: 455 x 508 km, 97.2° (Epoch: 19 October)

Date Brightness Start Highest point End Pass type
(mag) Time Alt. Az. Time Alt. Az. Time Alt. Az.
20 Oct 8.5 06:42:49 10° NNE 06:46:07 34° E 06:49:28 10° SSE visible
20 Oct 9.9 19:06:47 10° SW 19:09:13 18° W 19:11:41 10° NW visible
21 Oct 9.3 06:17:37 10° NE 06:20:37 24° E 06:23:38 10° SSE visible
21 Oct 9.2 18:40:42 10° SSW 18:43:38 25° W 18:46:37 10° NW visible
22 Oct 9.9 05:52:34 10° NE 05:55:03 17° E 05:57:33 10° SE visible
22 Oct 7.1 07:25:32 10° NNE 07:29:06 67° ESE 07:32:43 10° S visible
22 Oct 8.4 18:14:53 10° SSW 18:18:07 36° W 18:21:26 10° NNW visible
23 Oct 10.2 05:27:47 10° NE 05:29:25 13° E 05:31:03 10° ESE visible
23 Oct 7.9 07:00:13 10° NNE 07:03:42 45° E 07:07:13 10° S visible
23 Oct 7.5 17:49:15 10° S 17:52:41 53° WSW 17:56:10 10° NNW visible
23 Oct 10.1 19:24:57 10° WSW 19:26:54 14° W 19:28:51 10° NW visible
24 Oct 8.8 06:34:58 10° NNE 06:38:14 31° E 06:41:32 10° SSE visible
24 Oct 9.6 18:58:37 10° SW 19:01:16 20° W 19:03:57 10° NW visible
25 Oct 9.4 06:09:47 10° NE 06:12:42 22° E 06:15:37 10° SE visible
25 Oct 9.0 18:32:38 10° SSW 18:35:42 28° W 18:38:50 10° NNW visible
26 Oct 10.0 05:44:46 10° NE 05:47:06 16° E 05:49:27 10° ESE visible
26 Oct 7.3 07:17:37 10° NNE 07:21:14 59° ESE 07:24:52 10° S visible
26 Oct 8.1 18:06:52 10° S 18:10:12 40° W 18:13:37 10° NNW visible
26 Oct 10.3 19:43:28 10° W 19:44:35 11° WNW 19:45:42 10° WNW visible
27 Oct 10.3 04:20:09 10° ENE 04:21:26 11° ENE 04:22:43 10° E visible
27 Oct 8.2 05:52:19 10° NNE 05:55:48 40° E 05:59:18 10° S visible
27 Oct 7.2 16:41:16 10° S 16:44:45 60° WSW 16:48:20 10° NNW visible
27 Oct 10.0 18:16:40 10° WSW 18:18:54 16° W 18:21:10 10° NW visible
28 Oct 8.9 05:27:05 10° NNE 05:30:18 28° E 05:33:32 10° SSE visible
28 Oct 9.4 17:50:27 10° SW 17:53:17 22° W 17:56:10 10° NW visible
29 Oct 9.6 05:01:56 10° NE 05:04:45 20° E 05:07:34 10° SE visible
29 Oct 6.8 06:35:02 10° NNE 06:38:42 78° ESE 06:42:24 10° SSW visible
29 Oct 8.7 17:24:31 10° SSW 17:27:44 31° W 17:31:00 10° NNW visible
